Вернуться в каталог

CUBY-3

АктивенЛюбительское радиоSSO
NORAD 69875·PAYLOAD·🇦🇪 UAE

Запущен Jul 7, 2026 с Vandenberg Space Force Base

Loading…

Ближайшие Пролёты (ближайшие 24 часа)

TLE

СвежийSource: Space-Track

Эпоха: Sep 14, 2026, 12:49 UTC

1 69875U 26156G   26257.53413276  .00000630  00000-0  69168-4 0  9991
2 69875  97.7427 156.7217 0001944 250.8412 109.2596 14.91060064 10310

Отслеживайте CUBY-3 в реальном времени с AllMySat

Download on the App Store